Location: Peterborough
(44.3091°N, 78.3197°W)
Time: 01:20:18
(UTC-04:00)

Vanguard 1 Rocket - Pass Details

Date: 24 March 2023
Orbit: 655 x 4220 km, 34.3° (Epoch: 02 June)

Event Time Altitude Azimuth Distance (km) Brightness Sun altitude
Rises 21:17:03 0° 201° (SSW) 8,396 12.3 -19.3°
Reaches altitude 10° 21:24:36 10° 191° (S) 7,411 11.9 -20.6°
Maximum altitude 21:43:01 27° 144° (SE) 5,450 10.8 -23.5°
Enters shadow 21:44:53 27° 137° (SE) 5,353 10.7 -23.8°
